Location: Chimay
(50.0486°N, 4.3171°E)
Time: 23:29:11
(UTC+00:00)

Cosmos 1271 Rocket - Pass Details

Date: 08 August 2020
Orbit: 499 x 545 km, 81.2° (Epoch: 23 September)

Event Time Altitude Azimuth Distance (km) Brightness Sun altitude
Rises 22:35:52 0° 355° (N) 2,611 7.6 -22.3°
Reaches altitude 10° 22:38:10 10° 7° (N) 1,726 6.3 -22.4°
Enters shadow 22:41:30 31° 68° (ENE) 921 3.9 -22.5°
